Flag Weather past 2 weeks in Sarajevo, Bosnia-Herzegovina

Now
32 °F

Ice fog.


Feels Like: 32 °F
Forecast: 30 / 52 °F
Wind: No wind

Location: Sarajevo / Butmir

Current Time: Nov 22, 2014 at 10:53:43 PM

Latest Report: Nov 22, 2014 at 10:00 PM


Visibility: 2 mi

Pressure: 30.33 "Hg

Humidity: 93%

Dew point: 30 °F

Location of SarajevoLocation

Historic Weather in Sarajevo — Graph

°F

Sarajevo temperature yesterday

Maximum temperature yesterday: 48 °F (at 2:30 PM)
Minimum temperature yesterday: 34 °F (at 12:00 AM)
Average temperature yesterday: 40 °F

Past Weeks' High & Low Weather Summary

 TemperatureHumidityPressure
High66 °F (Nov 16, 12:30 PM)100% (Nov 8, 9:30 PM)30.33 "Hg (Nov 8, 9:30 PM)
Low27 °F (Nov 22, 6:00 AM)49% (Nov 16, 2:00 PM)29.74 "Hg (Nov 12, 9:00 PM)
Average48 °F86%30.01 "Hg
* Reported Nov 7 9:00 PM — Nov 22 9:30 PM, Sarajevo, Weather by CustomWeather, © 2014

Note: Actual official high and low records may vary slightly from our data, if they occured in-between our weather recording intervals... More about our weather records

Advertising

Sarajevo weather history for previous 24 hours

 ConditionsComfort  
Time TempWeatherWind HumidityBarometerVisibility
9:30 PM
Nov 22
30 °FIce fog.1 mph93%30.33 "Hg2 mi
9:00 PM32 °FIce fog.2 mph93%30.33 "Hg2 mi
8:30 PM32 °FIce fog.1 mph93%30.33 "Hg2 mi
8:00 PM34 °FFog.1 mph87%30.33 "Hg3 mi
7:30 PM36 °FClear.No wind87%30.30 "Hg4 mi
6:30 PM36 °FClear.2 mph87%30.30 "Hg4 mi
6:00 PM34 °FClear.2 mph87%30.30 "Hg4 mi
5:30 PM37 °FClear.1 mph81%30.30 "Hg4 mi
5:00 PM37 °FClear.1 mph81%30.30 "Hg5 mi
4:30 PM39 °FClear.1 mph81%30.27 "Hg5 mi
4:00 PM41 °FSunny.1 mph76%30.27 "Hg10 mi
3:30 PM45 °FSunny.2 mph66%30.27 "Hg10 mi
3:00 PM46 °FSunny.1 mph62%30.27 "Hg10 mi
2:00 PM46 °FClear.1 mph62%30.27 "Hg5 mi
1:30 PM43 °FClear.1 mph71%30.27 "Hg4 mi
1:00 PM43 °FClear.1 mph76%30.27 "Hg4 mi
12:30 PM39 °FFog.1 mph93%30.27 "Hg3 mi
12:00 PM37 °FFog.1 mph100%30.30 "Hg1 mi
11:30 AM34 °FFog.1 mph100%30.30 "Hg1 mi
11:00 AM32 °FFog.1 mph100%30.33 "Hg1 mi
10:30 AM32 °FIce fog.1 mph100%30.33 "Hg1 mi
10:00 AM32 °FIce fog.1 mph93%30.33 "Hg1 mi
9:30 AM30 °FIce fog.No wind100%30.30 "Hg0 mi
9:00 AM30 °FIce fog.2 mph100%30.30 "Hg0 mi
8:30 AM30 °FIce fog.1 mph100%30.30 "Hg1 mi
8:00 AM30 °FIce fog.No wind100%30.30 "Hg1 mi
7:30 AM28 °FIce fog.1 mph100%30.30 "Hg1 mi
7:00 AM28 °FChilly.No wind100%30.30 "Hg5 mi
6:30 AM28 °FPassing clouds.1 mph93%30.30 "Hg1 mi
6:00 AM27 °FIce fog.2 mph100%30.30 "Hg3 mi
5:30 AM28 °FIce fog.No wind100%30.30 "Hg2 mi
5:00 AM28 °FIce fog.1 mph100%30.30 "Hg2 mi
4:00 AM28 °FIce fog.1 mph100%30.27 "Hg3 mi
3:00 AM30 °FIce fog.1 mph93%30.30 "Hg3 mi
2:00 AM32 °FIce fog.No wind93%30.30 "Hg3 mi
1:00 AM32 °FIce fog.1 mph93%30.27 "Hg3 mi
12:00 AM34 °FFog.No wind93%30.27 "Hg2 mi
11:00 PM
Nov 21
36 °FFog.1 mph93%30.27 "Hg2 mi
10:00 PM37 °FFog.2 mph87%30.27 "Hg3 mi
Weather by CustomWeather, © 2014

See weather overviewHow to use our weather pages